Location: Saint Louis
(38.6272°N, 90.1978°W)
Time: 15:46:29
(UTC-05:00)

ISS - Pass Details

Date: 14 June 2013
Orbit: 402 x 404 km, 51.6° (Epoch: 25 May)

Event Time Altitude Azimuth Distance (km) Brightness Sun altitude
Rises 23:29:17 0° 314° (NW) 2,317 1.6 -24.4°
Reaches altitude 10° 23:31:28 10° 323° (NW) 1,455 0.5 -24.6°
Enters shadow 23:33:39 30° 356° (N) 748 -1.4 -24.7°
